This demonstration page uses our WeatherBlox Daily Observations layout. Learn more.

Left ArrowRight Arrow

34.16533, -84.80231

Hourly Observations for August 15, 2018

Temp ( °F °C ) Dew Point ( °F °C ) Humidity (%) Winds ( mph kmh ) Pressure ( in mb ) Visibility ( mi km ) Precip ( " mm )
12:53 am 00:53 Clear 67 19.4 67 19.4 100 100 Calm 30.05 1018 7 11 0.00 0.00
1:53 am 01:53 Clear 66 18.9 66 18.9 100 100 Calm 30.04 1017 7 11 0.00 0.00
2:53 am 02:53 Clear with Mist and Fog 65 18.3 65 18.3 100 100 Calm 30.03 1017 6 10 0.00 0.00
3:53 am 03:53 Clear with Mist and Fog 65 18.3 65 18.3 100 100 Calm 30.03 1017 5 8 0.00 0.00
4:53 am 04:53 Clear with Mist and Fog 64 17.8 64 17.8 100 100 Calm 30.03 1017 5 8 0.00 0.00
5:22 am 05:22 Mostly Clear with Mist and Fog 65 18.3 65 18.3 100 100 Calm 30.03 1017 6 10 0.00 0.00
5:53 am 05:53 Clear with Mist and Fog 63 17.2 63 17.2 100 100 Calm 30.03 1017 6 10 0.00 0.00
6:53 am 06:53 Clear with Mist and Fog 63 17.2 63 17.2 100 100 Calm 30.04 1017 6 10 0.00 0.00
7:53 am 07:53 Sunny 66 18.9 66 18.9 100 100 Calm 30.06 1018 7 11 0.00 0.00
8:53 am 08:53 Sunny 69 20.6 69 20.6 100 100 Calm 30.08 1019 7 11 0.00 0.00
9:53 am 09:53 Sunny 76 24.4 71 21.7 85 85 Calm 30.09 1019 8 13 0.00 0.00
10:53 am 10:53 Sunny 82 27.8 69 20.6 65 65 Calm 30.09 1019 10 16 0.00 0.00
11:53 am 11:53 Sunny 85 29.4 66 18.9 53 53 Calm 30.09 1019 10 16 0.00 0.00
12:53 pm 12:53 Sunny 87 30.6 69 20.6 55 55 Calm 30.09 1019 10 16 0.00 0.00
1:53 pm 13:53 Sunny 88 31.1 64 17.8 45 45 Calm 30.07 1018 10 16 0.00 0.00
2:53 pm 14:53 Sunny 89 31.7 66 18.9 47 47 VRB 5 7 30.06 1018 10 16 0.00 0.00
3:53 pm 15:53 Sunny 89 31.7 63 17.2 42 42 SSW 3 6 30.04 1017 10 16 0.00 0.00
4:53 pm 16:53 Mostly Sunny 90 32.2 64 17.8 42 42 Calm 30.04 1017 10 16 0.00 0.00
5:53 pm 17:53 Mostly Sunny 87 30.6 70 21.1 57 57 Calm 30.04 1017 10 16 0.00 0.00
6:53 pm 18:53 Mostly Sunny 87 30.6 72 22.2 61 61 Calm 30.04 1017 10 16 0.00 0.00
7:53 pm 19:53 Sunny 81 27.2 76 24.4 85 85 SSE 3 6 30.04 1017 9 14 0.00 0.00
8:53 pm 20:53 Clear 74 23.3 73 22.8 97 97 Calm 30.05 1018 9 14 0.00 0.00
9:53 pm 21:53 Clear 74 23.3 73 22.8 97 97 Calm 30.07 1018 8 13 0.00 0.00
10:53 pm 22:53 Mostly Clear 73 22.8 72 22.2 96 96 Calm 30.07 1018 8 13 0.00 0.00
11:53 pm 23:53 Clear 71 21.7 71 21.7 100 100 Calm 30.07 1018 7 11 0.00 0.00

Powered by AerisWeather